Regional Weather Roundup
Issued by NWS Charleston, SC

Home | Current Version | Previous Version | Text Only | Print | Product List | Glossary On
Versions: 1 2 3 4 5 6 7 8 9 10 11 12 13 14 15 16 17 18 19 20 21 22 23 24 25 26 27 28 29 30 31 32 33 34 35 36 37 38 39 40 41 42 43 44 45 46 47 48 49 50
000
ASUS42 KCHS 232227
RWRCHS

REGIONAL WEATHER ROUNDUP
NATIONAL WEATHER SERVICE CHARLESTON SC
500 PM EST THU NOV 23 2017

NOTE: "FAIR" INDICATES FEW OR NO CLOUDS BELOW 12,000 FEET WITH NO
SIGNIFICANT WEATHER AND/OR OBSTRUCTIONS TO VISIBILITY.

NOT ALL STATIONS ARE QUALITY CONTROLLED. USE DATA WITH CAUTION...
ESPECIALLY DEWPOINT OBSERVATIONS.

SCZ027-030-031-034>040-042>050-232300-
...SOUTHEAST SOUTH CAROLINA...

CITY           SKY/WX    TMP DP  RH WIND       PRES   REMARKS
N CHARLESTON   LGT RAIN  46  45  96 NE12      30.00R
WATERFRONT PRK NOT AVBL
JOHNS ISLAND   LGT RAIN  48  48 100 N10       30.00R
PINOPOLIS        N/A     48  43  81 NE12      29.94F
MONCKS CORNER  RAIN      45  41  87 NE6       30.03R
SUMMERVILLE    RAIN      45  43  93 NE5       30.02S
BEAUFORT MCAS  LGT RAIN  48  48 100 N12       30.00R
BEAUFORT ARPT  LGT RAIN  48  46  93 N9        29.98F
HILTON HEAD IS LGT RAIN  50  48  93 N12       29.99R
WALTERBORO     CLOUDY    45  43  93 N6        30.03R
ALLENDALE      MOCLDY    50  41  71 VRB3      30.01R

...SOUTHERN MIDLANDS AND PEE DEE...

CITY           SKY/WX    TMP DP  RH WIND       PRES   REMARKS
GEORGETOWN     MOCLDY    45  45 100 N5        30.03R
KINGSTREE      MOCLDY    46  37  71 NE5       30.03S
ORANGEBURG     CLOUDY    48  38  68 NE6       30.03R
BARNWELL         N/A     52  43  71 NE7       30.02R
AIKEN          FAIR      50  37  62 E3        30.05S
MANNING        FAIR      46  37  71 MISG      30.03S
COLUMBIA       MOCLDY    54  38  54 E5        30.02R
SUMTER         CLOUDY    48  36  62 E3        30.02R
FLORENCE       CLOUDY    48  35  60 NE7       30.04F
MYRTLE BEACH   CLOUDY    48  39  71 N8        30.04F
N MYRTLE BEACH CLOUDY    48  39  71 N9        30.03S

$$

GAZ063-065-086>088-099>101-113>116-118-119-134>141-150-232300-
...SOUTHEAST GEORGIA...

CITY           SKY/WX    TMP DP  RH WIND       PRES   REMARKS
SAVANNAH ARPT  CLOUDY    50  49  96 N12       29.99R FOG
HUNTER AAF     CLOUDY    50  48  93 NE6       29.95R
FORT STEWART   CLOUDY    51  49  94 N10       29.96R
STATESBORO     MOCLDY    52  43  71 CALM      30.00R
SYLVANIA       CLOUDY    52  46  80 NE5       30.02R
CLAXTON        CLOUDY    54  48  82 N8        29.99S

...CSRA...CENTRAL AND FAR SOUTHEAST GEORGIA...

CITY           SKY/WX    TMP DP  RH WIND       PRES   REMARKS
THOMSON        CLEAR     53  41  62 CALM      30.05S HAZE
AUGUSTA-BUSH   PTCLDY    57  41  55 NE8       30.00S
AUGUSTA-DANIEL CLEAR     58  41  53 E7        30.01R
SWAINSBORO     MOCLDY    55  45  67 NE5       30.00S
VIDALIA        CLOUDY    55  48  76 NE5       29.98S
EASTMAN        CLOUDY    59  38  46 CALM      30.01R
HAZLEHURST     CLOUDY    57  48  72 NE3       29.96S
ALMA           CLOUDY    54  52  93 N6        29.95S FOG
WAYCROSS       RAIN      54  51  90 NE7       29.95S
JESUP          CLOUDY    54  52  94 N6        29.97R
BAXLEY         CLOUDY    52  52 100 NE8       29.96F
BRUNSWICK      CLOUDY    55  54  94 N8        29.95R
SAINT SIMONS   CLOUDY    61  60  97 NE9       29.92R

$$

SCZ027-028-034-036>038-045-046-048>050-GAZ119-141-232300-
...LAKE AND SUPPLEMENTAL COASTAL OBSERVATIONS...

STATION/POSITION TIME  TEMP    WIND        PRES    WAVE   SWELL
                       AIR SEA DIR/SP/G            HT/PER HT/PER/DIR
                 (UTC) (F)     (DEG/KT/KT) (MB)    (FT/S) (FT/S/D)
WINYAH BAY       2145   47      30/  4     1016.0F
LAKE MURRAY      2150   55      40/  2/  5 1015.9S
ACE BASIN NERRS  2145   48     360/  3     1015.0S
FORT PULASKI     2200   52 61   20/ 13/ 15 1014.9
SAPELO ISLAND    2200   57      30/ 10     1013.0

$$

ANZ835-935-AMZ111-154-330-350-352-354-370-450-454-472-232300-
...C-MAN AND BUOY OBSERVATIONS...

STATION/POSITION TIME  TEMP    WIND        PRES    WAVE   SWELL
                       AIR SEA DIR/SP/G            HT/PER HT/PER/DIR
                 (UTC) (F)     (DEG/KT/KT) (MB)    (FT/S) (FT/S/D)
BUOY 41004       2210   64 75   40/ 21/ 27 1014.0
BUOY 41008       2150   64 67   50/ 21/ 27 1011.8R   6/ 8
FOLLY BEACH CMAN 2200   50      10/ 14/ 16 1015.9R
CAPERS NEARSHORE 2208   47 61   30/ 16/ 21 1015.4R
FRIPP NEARSHORE  2208   50 61   20/ 12/ 19 1014.0R


STATION/POSITION TIME  TEMP    WIND        PRES    WAVE   SWELL
                       AIR SEA DIR/SP/G            HT/PER HT/PER/DIR
                 (UTC) (F)     (DEG/KT/KT) (MB)    (FT/S) (FT/S/D)
5E ST. MARYS GA  2200      67                N/A     6/ 6
FRYING PAN BUOY  2210   59 71   30/ 21/ 23 1015.7
BUOY 41025       2210   55 71   20/ 14/ 17 1017.8
CAPE LOOKOUT NC  2200           40/ 16/ 18 1017.8S
BUOY 41002       2150   72 77   70/ 17/ 21 1012.6F   8/ 9   5/ 90/ 9
BUOY 41010       NOT AVBL
ST AUGUSTINE FL  2200   68 69   40/ 22/ 24 1010.4R


$$



USA.gov is the U.S. government's official web portal to all federal, state and local government web resources and services.